Time,TemperatureF,DewpointF,PressureIn,WindDirection,WindDirectionDegrees,WindSpeedMPH,WindSpeedGustMPH,Humidity,HourlyPrecipIn,Conditions,Clouds,dailyrainin,SoftwareType,DateUTC
2013-05-28 00:02:00,72.0,63.0,29.98,SSW,202,0.0,4.0,74,0.00,,,0.00,,2013-05-28 05:02:00,
2013-05-28 00:12:00,72.0,63.0,29.98,SSW,202,0.0,4.0,74,0.00,,,0.00,,2013-05-28 05:12:00,
2013-05-28 00:22:00,72.0,63.0,29.98,SSW,203,1.0,6.0,74,0.00,,,0.00,,2013-05-28 05:22:00,
2013-05-28 00:33:00,72.0,64.0,29.98,SSW,195,1.0,5.0,75,0.00,,,0.00,,2013-05-28 05:33:00,
2013-05-28 00:42:00,72.0,64.0,29.98,SSW,195,1.0,5.0,75,0.00,,,0.00,,2013-05-28 05:42:00,
2013-05-28 00:52:00,73.0,65.0,29.97,ESE,111,2.0,7.0,75,0.00,,,0.00,,2013-05-28 05:52:00,
2013-05-28 01:02:00,73.0,64.0,29.98,SSW,205,4.0,9.0,74,0.00,,,0.00,,2013-05-28 06:02:00,
2013-05-28 01:12:00,73.0,64.0,29.98,SSW,205,4.0,9.0,74,0.00,,,0.00,,2013-05-28 06:12:00,
2013-05-28 01:21:00,74.0,65.0,29.98,SSW,199,3.0,11.0,74,0.00,,,0.00,,2013-05-28 06:21:00,
2013-05-28 01:32:00,73.0,65.0,29.98,SSW,202,2.0,7.0,75,0.00,,,0.00,,2013-05-28 06:32:00,
2013-05-28 01:42:00,73.0,65.0,29.98,SSW,202,2.0,7.0,75,0.00,,,0.00,,2013-05-28 06:42:00,
2013-05-28 01:52:00,73.0,65.0,29.98,South,191,2.0,7.0,75,0.00,,,0.00,,2013-05-28 06:52:00,
2013-05-28 02:01:00,73.0,65.0,29.98,SSW,200,1.0,5.0,76,0.00,,,0.00,,2013-05-28 07:01:00,
2013-05-28 02:11:00,73.0,65.0,29.98,SSW,200,1.0,5.0,76,0.00,,,0.00,,2013-05-28 07:11:00,
2013-05-28 02:21:00,73.0,65.0,29.99,SW,233,1.0,6.0,76,0.00,,,0.00,,2013-05-28 07:21:00,
2013-05-28 02:32:00,73.0,65.0,29.98,SW,214,2.0,5.0,77,0.00,,,0.00,,2013-05-28 07:32:00,
2013-05-28 02:42:00,73.0,65.0,29.98,SW,214,2.0,5.0,77,0.00,,,0.00,,2013-05-28 07:42:00,
2013-05-28 02:52:00,73.0,65.0,29.98,SSW,209,2.0,5.0,77,0.00,,,0.00,,2013-05-28 07:52:00,
2013-05-28 03:02:00,72.0,65.0,29.98,South,189,0.0,8.0,78,0.00,,,0.00,,2013-05-28 08:02:00,
2013-05-28 03:12:00,72.0,65.0,29.98,South,189,0.0,8.0,78,0.00,,,0.00,,2013-05-28 08:12:00,
2013-05-28 03:22:00,72.0,65.0,29.98,SSW,210,1.0,5.0,78,0.00,,,0.00,,2013-05-28 08:22:00,
2013-05-28 03:32:00,72.0,65.0,29.97,SW,221,2.0,7.0,78,0.00,,,0.00,,2013-05-28 08:32:00,
2013-05-28 03:42:00,72.0,65.0,29.97,SW,221,2.0,7.0,78,0.00,,,0.00,,2013-05-28 08:42:00,
2013-05-28 03:52:00,72.0,65.0,29.98,SW,214,0.0,3.0,78,0.00,,,0.00,,2013-05-28 08:52:00,
2013-05-28 04:01:00,72.0,65.0,29.98,WSW,243,0.0,4.0,79,0.00,,,0.00,,2013-05-28 09:01:00,
2013-05-28 04:11:00,72.0,65.0,29.98,WSW,243,0.0,4.0,79,0.00,,,0.00,,2013-05-28 09:11:00,
2013-05-28 04:21:00,72.0,65.0,29.97,South,190,3.0,5.0,78,0.00,,,0.00,,2013-05-28 09:21:00,
2013-05-28 04:33:00,72.0,65.0,29.97,SSW,200,2.0,7.0,78,0.00,,,0.00,,2013-05-28 09:33:00,
2013-05-28 04:42:00,72.0,65.0,29.97,SSW,200,2.0,7.0,78,0.00,,,0.00,,2013-05-28 09:42:00,
2013-05-28 04:54:00,72.0,64.0,29.97,SSW,204,1.0,6.0,77,0.00,,,0.00,,2013-05-28 09:54:00,
2013-05-28 05:03:00,72.0,64.0,29.97,WSW,256,2.0,7.0,76,0.00,,,0.00,,2013-05-28 10:03:00,
2013-05-28 05:12:00,72.0,64.0,29.97,WSW,256,2.0,7.0,76,0.00,,,0.00,,2013-05-28 10:12:00,
2013-05-28 05:23:00,72.0,64.0,29.98,SSW,194,1.0,6.0,76,0.00,,,0.00,,2013-05-28 10:23:00,
2013-05-28 05:32:00,72.0,64.0,29.99,SSW,196,2.0,7.0,76,0.00,,,0.00,,2013-05-28 10:32:00,
2013-05-28 05:42:00,72.0,64.0,29.99,SSW,196,2.0,7.0,76,0.00,,,0.00,,2013-05-28 10:42:00,
2013-05-28 05:53:00,72.0,64.0,29.99,SSW,202,2.0,7.0,75,0.00,,,0.00,,2013-05-28 10:53:00,
2013-05-28 06:02:00,72.0,64.0,30.00,SW,227,3.0,10.0,76,0.00,,,0.00,,2013-05-28 11:02:00,
2013-05-28 06:11:00,72.0,64.0,30.00,SW,227,3.0,10.0,76,0.00,,,0.00,,2013-05-28 11:11:00,
2013-05-28 06:22:00,72.0,64.0,30.01,South,175,1.0,8.0,76,0.00,,,0.00,,2013-05-28 11:22:00,
2013-05-28 06:32:00,72.0,64.0,30.01,SSW,194,0.0,6.0,77,0.00,,,0.00,,2013-05-28 11:32:00,
2013-05-28 06:42:00,72.0,64.0,30.01,SSW,194,0.0,6.0,77,0.00,,,0.00,,2013-05-28 11:42:00,
2013-05-28 06:52:00,72.0,64.0,30.01,SSW,205,2.0,6.0,77,0.00,,,0.00,,2013-05-28 11:52:00,
2013-05-28 07:01:00,72.0,64.0,30.02,SW,229,2.0,7.0,77,0.00,,,0.00,,2013-05-28 12:01:00,
2013-05-28 07:11:00,72.0,64.0,30.02,SW,229,2.0,7.0,77,0.00,,,0.00,,2013-05-28 12:11:00,
2013-05-28 07:21:00,73.0,65.0,30.02,SSE,162,1.0,7.0,76,0.00,,,0.00,,2013-05-28 12:21:00,
2013-05-28 07:32:00,74.0,66.0,30.02,ESE,120,1.0,7.0,75,0.00,,,0.00,,2013-05-28 12:32:00,
2013-05-28 07:42:00,74.0,66.0,30.02,ESE,120,1.0,7.0,75,0.00,,,0.00,,2013-05-28 12:42:00,
2013-05-28 07:52:00,74.0,66.0,30.02,NNW,328,1.0,7.0,75,0.00,,,0.00,,2013-05-28 12:52:00,
2013-05-28 08:01:00,74.0,66.0,30.04,ESE,123,1.0,6.0,76,0.00,,,0.00,,2013-05-28 13:01:00,
2013-05-28 08:11:00,74.0,66.0,30.04,ESE,123,1.0,6.0,76,0.00,,,0.00,,2013-05-28 13:11:00,
2013-05-28 08:21:00,74.0,66.0,30.05,SSW,209,1.0,8.0,76,0.00,,,0.00,,2013-05-28 13:21:00,
2013-05-28 08:32:00,76.0,67.0,30.05,ESE,104,0.0,8.0,74,0.00,,,0.00,,2013-05-28 13:32:00,
2013-05-28 08:42:00,76.0,67.0,30.05,ESE,104,0.0,8.0,74,0.00,,,0.00,,2013-05-28 13:42:00,
2013-05-28 08:52:00,76.0,66.0,30.05,NNE,24,1.0,7.0,72,0.00,,,0.00,,2013-05-28 13:52:00,
2013-05-28 09:01:00,77.0,67.0,30.05,NNE,19,2.0,10.0,71,0.00,,,0.00,,2013-05-28 14:01:00,
2013-05-28 09:11:00,77.0,67.0,30.05,NNE,19,2.0,10.0,71,0.00,,,0.00,,2013-05-28 14:11:00,
2013-05-28 09:21:00,78.0,67.0,30.05,SSW,212,2.0,9.0,70,0.00,,,0.00,,2013-05-28 14:21:00,
2013-05-28 09:32:00,78.0,67.0,30.04,SE,130,3.0,12.0,69,0.00,,,0.00,,2013-05-28 14:32:00,
2013-05-28 09:42:00,78.0,67.0,30.04,SE,130,3.0,12.0,69,0.00,,,0.00,,2013-05-28 14:42:00,
2013-05-28 09:52:00,79.0,68.0,30.04,NNW,329,2.0,9.0,70,0.00,,,0.00,,2013-05-28 14:52:00,
2013-05-28 10:01:00,79.0,68.0,30.04,NNW,329,2.0,9.0,70,0.00,,,0.00,,2013-05-28 15:01:00,
2013-05-28 10:11:00,79.0,68.0,30.04,NNW,329,2.0,9.0,70,0.00,,,0.00,,2013-05-28 15:11:00,
2013-05-28 10:21:00,80.0,68.0,30.03,SSW,213,5.0,13.0,68,0.00,,,0.00,,2013-05-28 15:21:00,
2013-05-28 10:32:00,80.0,68.0,30.03,SW,222,4.0,10.0,67,0.00,,,0.00,,2013-05-28 15:32:00,
2013-05-28 10:43:00,80.0,68.0,30.03,SW,222,4.0,10.0,67,0.00,,,0.00,,2013-05-28 15:43:00,
2013-05-28 10:53:00,81.0,69.0,30.02,SSE,157,4.0,11.0,67,0.00,,,0.00,,2013-05-28 15:53:00,
2013-05-28 11:03:00,81.0,68.0,30.01,South,169,5.0,12.0,65,0.00,,,0.00,,2013-05-28 16:03:00,
2013-05-28 11:12:00,81.0,68.0,30.01,South,169,5.0,12.0,65,0.00,,,0.00,,2013-05-28 16:12:00,
2013-05-28 11:22:00,82.0,69.0,30.01,NW,307,3.0,13.0,64,0.00,,,0.00,,2013-05-28 16:22:00,
2013-05-28 11:33:00,82.0,69.0,30.01,SW,217,5.0,14.0,64,0.00,,,0.00,,2013-05-28 16:33:00,
2013-05-28 11:42:00,82.0,69.0,30.01,SW,217,5.0,14.0,64,0.00,,,0.00,,2013-05-28 16:42:00,
2013-05-28 11:52:00,83.0,69.0,30.02,West,279,5.0,14.0,62,0.00,,,0.00,,2013-05-28 16:52:00,
2013-05-28 12:02:00,83.0,69.0,30.02,South,185,5.0,17.0,62,0.00,,,0.00,,2013-05-28 17:02:00,
2013-05-28 12:12:00,83.0,69.0,30.02,South,185,5.0,17.0,62,0.00,,,0.00,,2013-05-28 17:12:00,
2013-05-28 12:22:00,83.0,69.0,30.02,South,185,5.0,17.0,62,0.00,,,0.00,,2013-05-28 17:22:00,
2013-05-28 12:32:00,84.0,68.0,30.01,South,187,3.0,12.0,59,0.00,,,0.00,,2013-05-28 17:32:00,
2013-05-28 12:42:00,84.0,69.0,30.01,SW,222,6.0,17.0,60,0.00,,,0.00,,2013-05-28 17:42:00,
2013-05-28 12:52:00,84.0,69.0,30.01,SW,222,6.0,17.0,60,0.00,,,0.00,,2013-05-28 17:52:00,
2013-05-28 13:01:00,84.0,68.0,30.01,SSE,157,6.0,13.0,58,0.00,,,0.00,,2013-05-28 18:01:00,
2013-05-28 13:11:00,84.0,68.0,30.01,SSE,157,6.0,13.0,58,0.00,,,0.00,,2013-05-28 18:11:00,
2013-05-28 13:21:00,84.0,68.0,30.02,WSW,238,4.0,13.0,58,0.00,,,0.00,,2013-05-28 18:21:00,
2013-05-28 13:32:00,86.0,68.0,30.02,WSW,246,3.0,12.0,55,0.00,,,0.00,,2013-05-28 18:32:00,
2013-05-28 13:42:00,86.0,68.0,30.02,WSW,246,3.0,12.0,55,0.00,,,0.00,,2013-05-28 18:42:00,
2013-05-28 13:52:00,86.0,67.0,30.01,East,94,5.0,12.0,53,0.00,,,0.00,,2013-05-28 18:52:00,
2013-05-28 14:01:00,86.0,68.0,30.01,West,263,2.0,11.0,55,0.00,,,0.00,,2013-05-28 19:01:00,
2013-05-28 14:11:00,86.0,68.0,30.01,West,263,2.0,11.0,55,0.00,,,0.00,,2013-05-28 19:11:00,
2013-05-28 14:21:00,87.0,68.0,30.01,SSW,205,5.0,10.0,54,0.00,,,0.00,,2013-05-28 19:21:00,
2013-05-28 14:32:00,87.0,68.0,30.01,South,187,1.0,13.0,54,0.00,,,0.00,,2013-05-28 19:32:00,
2013-05-28 14:42:00,87.0,68.0,30.01,South,187,1.0,13.0,54,0.00,,,0.00,,2013-05-28 19:42:00,
2013-05-28 14:52:00,87.0,67.0,30.00,SSW,210,6.0,11.0,52,0.00,,,0.00,,2013-05-28 19:52:00,
2013-05-28 15:01:00,86.0,66.0,30.00,SSW,196,3.0,12.0,52,0.00,,,0.00,,2013-05-28 20:01:00,
2013-05-28 15:11:00,86.0,66.0,30.00,SSW,196,3.0,12.0,52,0.00,,,0.00,,2013-05-28 20:11:00,
2013-05-28 15:22:00,87.0,67.0,30.00,WNW,302,2.0,14.0,51,0.00,,,0.00,,2013-05-28 20:22:00,
2013-05-28 15:32:00,87.0,67.0,30.00,SW,233,2.0,12.0,52,0.00,,,0.00,,2013-05-28 20:32:00,
2013-05-28 15:42:00,87.0,67.0,30.00,SW,233,2.0,12.0,52,0.00,,,0.00,,2013-05-28 20:42:00,
2013-05-28 15:52:00,86.0,67.0,30.00,SSE,163,3.0,12.0,53,0.00,,,0.00,,2013-05-28 20:52:00,
2013-05-28 16:01:00,87.0,65.0,29.99,SW,229,4.0,11.0,49,0.00,,,0.00,,2013-05-28 21:01:00,
2013-05-28 16:11:00,87.0,65.0,29.99,SW,229,4.0,11.0,49,0.00,,,0.00,,2013-05-28 21:11:00,
2013-05-28 16:21:00,86.0,65.0,29.99,SSW,192,7.0,15.0,50,0.00,,,0.00,,2013-05-28 21:21:00,
2013-05-28 16:33:00,86.0,65.0,29.98,SSW,203,5.0,13.0,49,0.00,,,0.00,,2013-05-28 21:33:00,
2013-05-28 16:43:00,86.0,65.0,29.98,SSW,203,5.0,13.0,49,0.00,,,0.00,,2013-05-28 21:43:00,
2013-05-28 16:53:00,86.0,64.0,29.98,SSW,211,7.0,14.0,48,0.00,,,0.00,,2013-05-28 21:53:00,
2013-05-28 17:02:00,86.0,65.0,29.97,SW,220,5.0,14.0,49,0.00,,,0.00,,2013-05-28 22:02:00,
2013-05-28 17:12:00,86.0,65.0,29.97,SW,220,5.0,14.0,49,0.00,,,0.00,,2013-05-28 22:12:00,
2013-05-28 17:22:00,86.0,65.0,29.97,SSW,197,4.0,13.0,49,0.00,,,0.00,,2013-05-28 22:22:00,
2013-05-28 17:32:00,86.0,65.0,29.96,South,189,5.0,13.0,49,0.00,,,0.00,,2013-05-28 22:32:00,
2013-05-28 17:42:00,86.0,65.0,29.96,SSW,203,4.0,9.0,49,0.00,,,0.00,,2013-05-28 22:42:00,
2013-05-28 17:52:00,86.0,65.0,29.96,SSW,203,4.0,9.0,49,0.00,,,0.00,,2013-05-28 22:52:00,
2013-05-28 18:02:00,85.0,64.0,29.96,SSW,198,4.0,10.0,50,0.00,,,0.00,,2013-05-28 23:02:00,
2013-05-28 18:11:00,85.0,64.0,29.96,SSW,198,4.0,10.0,50,0.00,,,0.00,,2013-05-28 23:11:00,
2013-05-28 18:22:00,85.0,64.0,29.96,South,191,6.0,12.0,50,0.00,,,0.00,,2013-05-28 23:22:00,
2013-05-28 18:32:00,84.0,63.0,29.96,South,181,5.0,12.0,50,0.00,,,0.00,,2013-05-28 23:32:00,
2013-05-28 18:42:00,84.0,63.0,29.96,South,181,5.0,12.0,50,0.00,,,0.00,,2013-05-28 23:42:00,
2013-05-28 18:52:00,83.0,62.0,29.96,WSW,251,5.0,9.0,50,0.00,,,0.00,,2013-05-28 23:52:00,
2013-05-28 19:02:00,83.0,62.0,29.97,SSW,203,4.0,9.0,49,0.00,,,0.00,,2013-05-29 00:02:00,
2013-05-28 19:11:00,83.0,62.0,29.97,SSW,203,4.0,9.0,49,0.00,,,0.00,,2013-05-29 00:11:00,
2013-05-28 19:21:00,82.0,61.0,29.96,SSW,193,5.0,9.0,50,0.00,,,0.00,,2013-05-29 00:21:00,
2013-05-28 19:32:00,81.0,61.0,29.96,South,181,2.0,7.0,51,0.00,,,0.00,,2013-05-29 00:32:00,
2013-05-28 19:41:00,81.0,61.0,29.96,South,181,2.0,7.0,51,0.00,,,0.00,,2013-05-29 00:41:00,
2013-05-28 19:52:00,80.0,60.0,29.96,SW,215,4.0,9.0,51,0.00,,,0.00,,2013-05-29 00:52:00,
2013-05-28 20:01:00,80.0,61.0,29.96,SSW,207,2.0,7.0,52,0.00,,,0.00,,2013-05-29 01:01:00,
2013-05-28 20:11:00,80.0,61.0,29.96,SSW,207,2.0,7.0,52,0.00,,,0.00,,2013-05-29 01:11:00,
2013-05-28 20:22:00,79.0,60.0,29.97,SSW,196,1.0,5.0,53,0.00,,,0.00,,2013-05-29 01:22:00,
2013-05-28 20:32:00,78.0,60.0,29.97,South,180,0.0,5.0,54,0.00,,,0.00,,2013-05-29 01:32:00,
2013-05-28 20:42:00,78.0,60.0,29.97,South,180,0.0,5.0,54,0.00,,,0.00,,2013-05-29 01:42:00,
2013-05-28 20:52:00,77.0,60.0,29.96,SSW,192,2.0,5.0,55,0.00,,,0.00,,2013-05-29 01:52:00,
2013-05-28 21:02:00,77.0,60.0,29.96,South,170,3.0,7.0,55,0.00,,,0.00,,2013-05-29 02:02:00,
2013-05-28 21:12:00,77.0,60.0,29.96,South,170,3.0,7.0,55,0.00,,,0.00,,2013-05-29 02:12:00,
2013-05-28 21:21:00,77.0,59.0,29.96,SW,222,3.0,8.0,53,0.00,,,0.00,,2013-05-29 02:21:00,
2013-05-28 21:32:00,77.0,58.0,29.96,SW,236,3.0,9.0,52,0.00,,,0.00,,2013-05-29 02:32:00,
2013-05-28 21:42:00,77.0,58.0,29.96,SSW,202,1.0,9.0,52,0.00,,,0.00,,2013-05-29 02:42:00,
2013-05-28 21:52:00,77.0,58.0,29.96,SSW,202,1.0,9.0,52,0.00,,,0.00,,2013-05-29 02:52:00,
2013-05-28 22:02:00,77.0,57.0,29.96,SSE,163,5.0,8.0,51,0.00,,,0.00,,2013-05-29 03:02:00,
2013-05-28 22:12:00,77.0,57.0,29.96,SSE,163,5.0,8.0,51,0.00,,,0.00,,2013-05-29 03:12:00,
2013-05-28 22:21:00,77.0,58.0,29.97,SSW,207,1.0,9.0,52,0.00,,,0.00,,2013-05-29 03:21:00,
2013-05-28 22:33:00,76.0,58.0,29.97,SSE,163,3.0,7.0,53,0.00,,,0.00,,2013-05-29 03:33:00,
2013-05-28 22:43:00,76.0,58.0,29.97,SSE,163,3.0,7.0,53,0.00,,,0.00,,2013-05-29 03:43:00,
2013-05-28 22:53:00,76.0,58.0,29.96,South,182,4.0,8.0,54,0.00,,,0.00,,2013-05-29 03:53:00,
2013-05-28 23:02:00,75.0,58.0,29.97,SSE,162,1.0,9.0,56,0.00,,,0.00,,2013-05-29 04:02:00,
2013-05-28 23:13:00,75.0,58.0,29.97,SSE,162,1.0,9.0,56,0.00,,,0.00,,2013-05-29 04:13:00,
2013-05-28 23:23:00,74.0,59.0,29.98,SSE,164,0.0,3.0,59,0.00,,,0.00,,2013-05-29 04:23:00,
2013-05-28 23:33:00,73.0,58.0,29.99,South,184,0.0,5.0,60,0.00,,,0.00,,2013-05-29 04:33:00,
2013-05-28 23:42:00,73.0,58.0,29.99,South,184,0.0,5.0,60,0.00,,,0.00,,2013-05-29 04:42:00,
2013-05-28 23:52:00,73.0,58.0,30.00,South,173,1.0,5.0,60,0.00,,,0.00,,2013-05-29 04:52:00,